TIME,�g��[���C[MJ/h],����[MJ/h],�Ɩ�[MJ/h],�~�[[MJ/h],�①��[MJ/h],��y���[MJ/h],�Ǝ��q��[MJ/h],���̑��s��[MJ/h],�u�����`������[MJ/h]
2005/2/1 0:00,0,0,0.73584,0.0216,0,0.14544,0.08928,0,0.0072
2005/2/1 0:15,0,0,0.72432,0.03024,0.23184,0.14688,0.09216,0,-0.03024
2005/2/1 0:30,0,0,0.71424,0.02592,0.23184,0.14112,0.08784,0,-0.02016
2005/2/1 0:45,0,0,0.70128,0.0216,0,0.14112,0.09504,0,-0.00288
2005/2/1 1:00,0,0,0.26352,0.02592,0.144,0.14544,0.08928,0,0.03168
2005/2/1 1:15,0,0,0.27072,0.03024,0.23472,0.14256,0.15696,0,0.01152
2005/2/1 1:30,0,0,0.25632,0.0216,0,0.14112,0.08928,0,0.04896
2005/2/1 1:45,0,0,0.25776,0.02736,0.21024,0.14256,0.09216,0,0.02016
2005/2/1 2:00,0,0,0.252,0.02592,0.26208,0.13824,0.13248,0,0.02592
2005/2/1 2:15,0,0,0.26352,0.0216,0,0.14256,0.09216,0,0.04032
2005/2/1 2:30,0,0,0.2592,0.02304,0.1152,0.14544,0.06192,0,0.03888
2005/2/1 2:45,0,0,0.26496,0.02736,0.252,0.14256,0.09216,0,0.01296
2005/2/1 3:00,0,0,0.2592,0.0216,0,0.14832,0.09648,0,0.05184
2005/2/1 3:15,0,0,0.25344,0.02592,0.12672,0.14112,0.09648,0,0.03024
2005/2/1 3:30,0,0,0.26352,0.02448,0.37296,0.144,0.12816,0,-0.0072
2005/2/1 3:45,0,0,0.29232,0.0216,0,0.14544,0.09648,0,0.04032
2005/2/1 4:00,0,0,0.26784,0.0216,0.03168,0.14256,0.1008,0,0.0432
2005/2/1 4:15,0,0,0.26496,0.0288,0.3528,0.13968,0.1008,0,0.01152
2005/2/1 4:30,0,0,0.25344,0.0216,0,0.14112,0.07488,0,0.05328
2005/2/1 4:45,0,0,0.25632,0.0216,0,0.14112,0.10512,0,0.0432
2005/2/1 5:00,0,0,0.3024,0.02736,0.41328,0.14112,0.10656,0,-0.00288
2005/2/1 5:15,0,0,0.27504,0.92304,0.03024,0.13968,0.13248,0,0.06624
2005/2/1 5:30,0,0,0.31392,1.45584,0,0.13968,0.09504,0,0.08784
2005/2/1 5:45,0,0,0.26352,0.23904,0.27936,0.14112,0.06912,0,0.0216
2005/2/1 6:00,0,0,0.38448,0.10368,0.1152,0.15696,0.34848,0,0.01872
2005/2/1 6:15,4.76496,0,1.7784,2.48688,0,0.18576,0.6336,0,-0.27648
2005/2/1 6:30,3.82464,0,2.13552,0.4752,0.2088,0.14256,0.17856,0,-0.39456
2005/2/1 6:45,3.47904,0,2.80512,0.0288,0.23616,0.14112,0.10944,0,-0.06624
2005/2/1 7:00,3.8808,0,2.66256,0.35712,0.02016,0.14112,0.09648,0,0.19872
2005/2/1 7:15,3.03408,0,2.07072,0.8784,0.17424,0.13968,0.10224,0,0.2088
2005/2/1 7:30,3.01968,0,2.232,0.02736,0.25344,0.14112,0.22896,0,-0.16416
2005/2/1 7:45,3.00384,0,1.32048,0.0216,0,0.87264,0.17568,0,-0.0936
2005/2/1 8:00,1.87344,0,0.9,0.02304,0.14832,0.70128,0.072,0,-0.14544
2005/2/1 8:15,2.99088,0,0.90576,0.03024,0.29664,0.24624,0.13824,0,-0.43344
2005/2/1 8:30,0.0072,0,0.37296,0.0216,0,0.144,0.07632,0,0.0504
2005/2/1 8:45,0,0,0.17568,0.0216,0.08064,0.13968,0.10656,0,0.04608
2005/2/1 9:00,0,0,0.18,0.02448,0.27792,0.13968,0.14256,0,0.036
2005/2/1 9:15,0,0,0.1584,0.0216,0,0.1368,0.08928,0,0.06624
2005/2/1 9:30,0,0,0.17856,0.0216,0.11952,0.14112,0.11232,0,0.05472
2005/2/1 9:45,0,0,0.18432,0.02304,0.32256,0.13968,0.10368,0,0.03168
2005/2/1 10:00,0,0,0.17424,0.0216,0,0.13968,0.10512,0,0.06912
2005/2/1 10:15,0,0,0.16848,0.0216,0.06048,0.1368,0.07344,0,0.08064
2005/2/1 10:30,0,0,0.17712,0.02592,0.30672,0.14256,0.10512,0,0.03168
2005/2/1 10:45,0,0,0.18432,0.0216,0,0.13968,0.16848,0,0.06048
2005/2/1 11:00,0,0,0.17568,0.0216,0.0936,0.14256,0.10656,0,0.06624
2005/2/1 11:15,0,0,0.17712,0.03024,0.34272,0.14112,0.08208,0,0.0432
2005/2/1 11:30,0,0,0.17856,0.0216,0,0.13824,0.1008,0,0.08064
2005/2/1 11:45,0,0,0.1728,0.02448,0.00288,0.13968,0.07488,0,0.072
2005/2/1 12:00,0,0,0.17424,0.02736,0.31968,0.144,0.10656,0,0.03744
2005/2/1 12:15,0,0,0.18,0.0216,0,0.14112,0.1728,0,0.05184
2005/2/1 12:30,0,0,0.1656,0.02448,0.03456,0.13392,0.144,0,0.08208
2005/2/1 12:45,0,0,0.16704,0.02304,0.396,0.14112,0.072,0,0.02736
2005/2/1 13:00,0,0,0.1728,0.0216,0,0.14112,0.10368,0,0.072
2005/2/1 13:15,0,0,0.18144,0.0216,0,0.14112,0.09792,0,0.06336
2005/2/1 13:30,0,0,0.18288,0.03024,0.38304,0.14256,0.11376,0,0.02448
2005/2/1 13:45,0,0,0.18864,0.0216,0.03024,0.13968,0.11376,0,0.06048
2005/2/1 14:00,0,0,0.17568,0.0216,0,0.144,0.072,0,0.0792
2005/2/1 14:15,0,0,0.16848,0.02736,0.38304,0.13968,0.07344,0,0.0432
2005/2/1 14:30,0,0,0.18576,0.02304,0.04608,0.14112,0.13824,0,0.0576
2005/2/1 14:45,0,0,0.1512,0.0216,0,0.13824,0.1584,0,0.06192
2005/2/1 15:00,0,0,0.17712,0.02736,0.3024,0.14112,0.10944,0,0.03456
2005/2/1 15:15,0,0,0.16704,0.02304,0.07344,0.1368,0.12816,0,0.04464
2005/2/1 15:30,0,0,0.16704,0.0216,0,0.14112,0.11664,0,0.06768
2005/2/1 15:45,0,0,0.17424,0.02448,0.22608,0.13968,0.10656,0,0.02736
2005/2/1 16:00,0.74592,0,0.31104,0.0216,0.18144,0.14112,0.16992,0,-0.05616
2005/2/1 16:15,3.65328,0,0.25776,0.44928,0.01296,0.32544,0.072,0,-0.13824
2005/2/1 16:30,4.51728,0,0.37008,0.02448,0.24768,0.1656,0.17424,0,-0.04608
2005/2/1 16:45,3.58992,0,0.7056,0.02736,0.14112,0.14112,0.10512,0,0.40032
2005/2/1 17:00,3.28608,0,0.79776,0.0216,0,0.14112,0.10656,0,0.05616
2005/2/1 17:15,4.23072,0,1.29888,0.02736,0.26928,0.26352,0.11088,0,-0.16272
2005/2/1 17:30,5.95584,0,1.73232,0.02736,0.20592,0.47376,0.07488,0,-0.37872
2005/2/1 17:45,5.82192,0,1.69344,0.29376,0,0.34704,0.1296,0,-0.25488
2005/2/1 18:00,5.17824,0,1.91952,1.63152,0.33408,0.13536,0.17712,0,-0.50544
2005/2/1 18:15,6.10416,0,1.96848,1.80576,0.49536,0.13824,0.10224,0,0.10368
2005/2/1 18:30,6.01632,0,1.66464,0.5184,0.54,0.26784,0.11088,0,0.59904
2005/2/1 18:45,5.39136,0,1.3248,0.06768,0.51408,0.36288,0.17712,0,-0.35712
2005/2/1 19:00,6.28848,0,1.83456,0.14112,0.5184,0.22032,0.10368,0,-0.41904
2005/2/1 19:15,5.16528,0,1.71936,0.99072,0.54864,0.37296,0.09792,0,-0.3888
2005/2/1 19:30,5.11056,0,1.6776,0.1368,0.2952,0.37152,0.1008,0,-0.34416
2005/2/1 19:45,4.7376,0,1.16496,0.12816,0,0.24048,0.10944,0,-0.23904
2005/2/1 20:00,5.02272,0,1.42416,0.13536,0.33264,0.1368,0.1008,0,0.40032
2005/2/1 20:15,4.86576,0,1.45872,0.13392,0.16272,0.13536,0.06912,0,1.93968
2005/2/1 20:30,4.62096,0,1.41552,0.1224,0,0.1368,0.10656,0,2.06208
2005/2/1 20:45,4.98816,0,1.4544,0.1296,0.3888,0.13824,0.10656,0,1.81296
2005/2/1 21:00,5.21136,0,1.98288,0.18576,0.18576,0.13248,0.10224,0,1.55232
2005/2/1 21:15,4.81968,0,1.7352,0.13392,0,0.144,0.07632,0,1.8288
2005/2/1 21:30,4.85424,0,1.75536,0.14112,0.41328,0.46224,0.13968,0,1.81728
2005/2/1 21:45,4.5936,0,2.05344,0.12528,0.12096,0.57312,0.48672,0,0.252
2005/2/1 22:00,6.65856,0,2.83968,0.1224,0.0144,0.7704,0.09936,0,-0.74304
2005/2/1 22:15,9.3312,0,2.36016,0.13104,0.4104,0.55296,0.23472,0,-0.51408
2005/2/1 22:30,9.2592,0,2.08368,0.1008,0.06192,0.4536,2.23776,0,0.25488
2005/2/1 22:45,9.1152,0,2.01024,0.0216,0.01152,0.46656,1.1952,0,0.75888
2005/2/1 23:00,8.64,0,1.81152,0.03168,0.44352,0.45504,0.09792,0,-0.73728
2005/2/1 23:15,5.14224,0,1.11024,0.0216,0,0.37008,0.17136,0,0.0288
2005/2/1 23:30,2.94192,0,1.35072,0.0216,0.07488,0.25488,0.10368,0,1.8072
2005/2/1 23:45,0,0,1.01088,0.02448,0.43488,0.1584,0.09936,0,2.16576
2005/2/2 0:00,0,0,0.99648,0.0216,0.04032,0.14256,0.10368,0,1.07136
2005/2/2 0:15,0,0,1.00368,0.0216,0,0.14544,0.06624,0,-0.00576
2005/2/2 0:30,0,0,0.96048,0.02736,0.41472,0.1512,0.09504,0,-0.0576
2005/2/2 0:45,0,0,0.93312,0.0216,0,0.1512,0.09792,0,0.01152
2005/2/2 1:00,0,0,0.95328,0.02448,0.08784,0.14976,0.09648,0,0
2005/2/2 1:15,0,0,0.72144,0.02448,0.37872,0.14832,0.1008,0,0.00144
2005/2/2 1:30,0,0,0.2664,0.0216,0,0.14256,0.10224,0,0.04608
2005/2/2 1:45,0,0,0.27072,0.0216,0.06768,0.14112,0.1656,0,0.01872
2005/2/2 2:00,0,0,0.26064,0.03312,0.38304,0.14256,0.0936,0,0.00144
2005/2/2 2:15,0,0,0.27216,0.0216,0,0.13968,0.09936,0,0.04032
2005/2/2 2:30,0,0,0.26928,0.0216,0.0576,0.14256,0.09792,0,0.03744
2005/2/2 2:45,0,0,0.27216,0.03024,0.39024,0.13968,0.09648,0,0.00288
2005/2/2 3:00,0,0,0.288,0.0216,0,0.14256,0.21456,0,0.01008
2005/2/2 3:15,0,0,0.26784,0.0216,0,0.1512,0.1008,0,0.04176
2005/2/2 3:30,0,0,0.26352,0.03168,0.37296,0.14112,0.07056,0,0.00576
2005/2/2 3:45,0,0,0.28368,0.0216,0.0288,0.14256,0.15984,0,0.03168
2005/2/2 4:00,0,0,0.26208,0.0216,0,0.144,0.10656,0,0.04896
2005/2/2 4:15,0,0,0.29232,0.02592,0.36,0.14832,0.11088,0,0.00576
2005/2/2 4:30,0,0,0.27216,0.02304,0.04752,0.144,0.10368,0,0.04032
2005/2/2 4:45,0,0,0.27072,0.0216,0,0.144,0.1008,0,0.04752
2005/2/2 5:00,0,0,0.26208,0.0288,0.28224,0.144,0.06912,0,0.01008
2005/2/2 5:15,0,0,0.29376,0.02448,0.1224,0.14832,0.12672,0,0.02736
2005/2/2 5:30,0,0,0.27216,0.0216,0,0.14688,0.108,0,0.04752
2005/2/2 5:45,0,0,0.26064,0.02448,0.16272,0.13968,0.14256,0,0.02448
2005/2/2 6:00,0,0,0.26496,0.0288,0.23472,0.16416,0.10368,0,0.0216
2005/2/2 6:15,1.86624,0,0.45936,0.0216,0,0.1872,0.07056,0,-0.28512
2005/2/2 6:30,6.04512,0,1.40544,0.59904,0.1008,0.19152,0.18288,0,-0.29952
2005/2/2 6:45,4.1184,0,2.376,1.70784,0.38736,0.1872,0.07776,0,-0.8856
2005/2/2 7:00,4.05216,0,2.69712,1.55808,0.0288,0.23904,0.5112,0,-0.34272
2005/2/2 7:15,4.00464,0,2.5992,3.48624,0.03024,0.2376,0.14256,0,-0.13392
2005/2/2 7:30,3.66336,0,2.72736,1.36944,0.39168,0.21456,0.1008,0,0.72864
2005/2/2 7:45,6.24528,0,1.78128,0.1224,0.08496,0.16992,0.54,0,-0.4896
2005/2/2 8:00,4.92192,0,1.41984,0.05904,0,0.13536,0.07056,0,-0.31968
2005/2/2 8:15,0,0,0.54144,0.03312,0.26496,0.13968,0.10368,0,-0.036
2005/2/2 8:30,0,0,0.46944,0.02304,0.13968,0.13968,0.10224,0,-0.00432
2005/2/2 8:45,0,0,0.47232,0.0216,0,0.14112,0.07344,0,0.01584
2005/2/2 9:00,0,0,0.48096,0.02304,0.2016,0.13968,0.1728,0,-0.0216
2005/2/2 9:15,0,0,0.47664,0.02448,0.19872,0.144,0.10656,0,-0.00864
2005/2/2 9:30,0,0,0.4752,0.0216,0,0.14112,0.1008,0,0.01584
2005/2/2 9:45,0,0,0.47808,0.02448,0.08352,0.14256,0.08352,0,0.0072
2005/2/2 10:00,0,0,0.49824,0.03312,0.3168,0.13968,0.18144,0,-0.03888
2005/2/2 10:15,0,0,0.47088,0.0216,0,0.14112,0.10944,0,0.01296
2005/2/2 10:30,0,0,0.46656,0.0216,0.02016,0.14544,0.11232,0,-0.00432
2005/2/2 10:45,0,0,0.47232,0.0288,0.3888,0.14112,0.21024,0,-0.04032
2005/2/2 11:00,0,0,0.46368,0.0216,0,0.13968,0.1008,0,0.0216
2005/2/2 11:15,0,0,0.47088,0.0216,0,0.14112,0.072,0,0.01872
2005/2/2 11:30,0,0,0.504,0.02736,0.39456,0.14112,0.21456,0,-0.0864
2005/2/2 11:45,0,0,0.47376,0.02304,0.01296,0.1368,0.09936,0,0.01008
2005/2/2 12:00,0,0,0.49392,0.0216,0,0.14688,0.12528,0,0.01152
2005/2/2 12:15,0,0,0.468,0.03312,0.31536,0.14112,0.10224,0,-0.03456
2005/2/2 12:30,0,0,0.46944,0.02448,0.09216,0.144,0.10656,0,0.00864
2005/2/2 12:45,0,0,0.46656,0.0216,0,0.13824,0.10656,0,0.01296
2005/2/2 13:00,0,0,0.46368,0.02448,0.24192,0.14112,0.10656,0,0.0072
2005/2/2 13:15,0,0,0.4464,0.02304,0.21456,0.13968,0.18,0,0.0144
2005/2/2 13:30,0,0,0.4752,0.0216,0,0.14112,0.10944,0,0.0144
2005/2/2 13:45,0,0,0.44928,0.02448,0.09504,0.14112,0.16992,0,-0.01296
2005/2/2 14:00,0,0,0.46944,0.03312,0.30096,0.144,0.072,0,-0.01872
2005/2/2 14:15,0,0,0.46512,0.0216,0,0.14256,0.11088,0,0.01296
2005/2/2 14:30,0,0,0.4752,0.0216,0,0.14256,0.10656,0,0.01296
2005/2/2 14:45,0,0,0.47232,0.02448,0.39888,0.14112,0.1008,0,-0.03168
2005/2/2 15:00,0,0,0.47376,0.0216,0,0.13968,0.07488,0,0.02304
2005/2/2 15:15,0,0,0.46656,0.0216,0,0.14256,0.1008,0,0.0144
2005/2/2 15:30,0.288,0,0.56016,0.0288,0.3312,0.13536,0.10368,0,-0.07344
2005/2/2 15:45,3.64608,0,0.28512,0.02448,0.06336,0.14112,0.10512,0,-0.4032
2005/2/2 16:00,4.90752,0,0.17856,0.0216,0,0.14112,0.07344,0,0.19728
2005/2/2 16:15,3.63888,0,0.51264,0.02592,0.2304,0.14112,0.18144,0,-0.5616
2005/2/2 16:30,3.09168,0,0.87264,0.02736,0.1728,0.14112,0.1296,0,-0.036
2005/2/2 16:45,5.05296,0,0.95616,0.02304,0,0.13536,0.10512,0,-0.16272
2005/2/2 17:00,5.1336,0,1.45872,0.02304,0.13536,0.13824,0.09936,0,-0.1944
2005/2/2 17:15,5.13216,0,1.25856,0.02448,0.24624,0.38736,0.10512,0,-0.25056
2005/2/2 17:30,4.90752,0,1.63152,0.0216,0,0.4752,0.12384,0,-0.26928
2005/2/2 17:45,4.78944,0,1.85616,0.02304,0.15984,0.4752,0.21456,0,-0.36
2005/2/2 18:00,5.12784,0,1.91088,0.5544,0.35424,0.31104,0.1008,0,-0.33552
2005/2/2 18:15,5.24592,0,1.65744,1.03824,0,0.1368,0.08496,0,-0.31824
2005/2/2 18:30,5.30928,0,2.26944,1.25136,0.08496,0.14256,0.10224,0,-0.40752
2005/2/2 18:45,5.26464,0,2.40768,0.29952,0.32544,0.13824,0.09936,0,-0.53568
2005/2/2 19:00,4.12272,0,2.07216,1.07856,0.05184,0.21168,0.10368,0,0.65088
2005/2/2 19:15,3.01104,0,1.59552,0.0216,0.1224,0.36432,0.10656,0,-0.26352
2005/2/2 19:30,2.90304,0,1.94112,0.41184,0.3744,0.16848,0.10368,0,-0.13824
2005/2/2 19:45,2.98368,0,1.60704,0.0216,0,0.1944,0.20016,0,-0.07488
2005/2/2 20:00,3.1608,0,1.30464,0.0216,0.05472,0.36576,0.10224,0,0.56592
2005/2/2 20:15,4.9392,0,1.99008,0.02736,0.40464,0.35424,0.13824,0,1.62144
2005/2/2 20:30,4.55904,0,1.66176,0.0216,0,0.35136,0.10224,0,1.91808
2005/2/2 20:45,4.7016,0,1.32048,0.0216,0.06336,0.34992,0.09648,0,1.8792
2005/2/2 21:00,4.62528,0,1.54512,0.03024,0.37872,0.34704,0.10656,0,1.85904
2005/2/2 21:15,4.58928,0,1.3464,0.0216,0.00144,0.35136,0.06912,0,1.83456
2005/2/2 21:30,4.54176,0,2.02896,0.0216,0.02736,0.22608,0.10224,0,0.2232
2005/2/2 21:45,4.6008,0,2.8008,0.02592,0.43056,0.1368,0.10512,0,-0.31536
2005/2/2 22:00,4.60656,0,2.44512,0.0216,0,0.13536,0.10224,0,-0.29952
2005/2/2 22:15,4.59072,0,2.232,0.02304,0.0144,0.22464,0.2088,0,0.14976
2005/2/2 22:30,3.06864,0,1.88928,0.036,0.42048,0.16416,0.07632,0,1.7208
2005/2/2 22:45,2.97936,0,1.83888,0.02448,0.02592,0.13104,1.85472,0,1.54224
2005/2/2 23:00,2.66688,0,1.65312,0.0216,0,0.13536,0.10512,0,0.99648
2005/2/2 23:15,2.48688,0,1.36512,0.03168,0.40176,0.67824,0.10368,0,0.13248
2005/2/2 23:30,0.83088,0,0.55872,0.0216,0,0.59328,0.07056,0,-0.08064
2005/2/2 23:45,0.29376,0,0.26928,0.02304,0.03888,0.18288,0.14544,0,0.0072
2005/2/3 0:00,0.36432,0,0.27936,0.02592,0.44208,0.1512,0.10224,0,-0.06624
2005/2/3 0:15,0.25344,0,0.25632,0.02592,0.03888,0.1512,0.10512,0,0.02016
2005/2/3 0:30,0.38016,0,0.23616,0.0216,0,0.1512,0.1008,0,0.00432
2005/2/3 0:45,0.48528,0,0.2736,0.02304,0.40608,0.1512,0.10368,0,-0.05472
2005/2/3 1:00,0.49248,0,0.2808,0.0216,0.00432,0.1512,0.108,0,-0.07056
2005/2/3 1:15,0.42768,0,0.25344,0.0216,0,0.1512,0.15408,0,0.01584
2005/2/3 1:30,0.41472,0,0.29808,0.03024,0.35712,0.20592,0.06912,0,-0.03312
2005/2/3 1:45,0.3384,0,0.25632,0.02304,0.04464,0.22032,0.11232,0,-0.0216
2005/2/3 2:00,0.48528,0,0.2736,0.0216,0,0.18288,0.10368,0,-0.02448
2005/2/3 2:15,0.49248,0,0.2664,0.02736,0.30528,0.1728,0.07632,0,-0.04608
2005/2/3 2:30,0.34416,0,0.2952,0.02304,0.19152,0.16416,0.10368,0,-0.03888
2005/2/3 2:45,0.39312,0,0.26208,0.0216,0,0.1512,0.14544,0,-0.00144
2005/2/3 3:00,0.45936,0,0.2664,0.02448,0.17712,0.14688,0.17712,0,-0.06048
2005/2/3 3:15,0.32976,0,0.28656,0.02304,0.22608,0.14544,0.10656,0,-0.04464
2005/2/3 3:30,0.43344,0,0.25344,0.0216,0,0.13968,0.20592,0,-0.01584
2005/2/3 3:45,0.36144,0,0.25056,0.02304,0.0792,0.14256,0.08496,0,-0.01584
2005/2/3 4:00,0.4464,0,0.27936,0.03456,0.31536,0.14544,0.13536,0,-0.03744
2005/2/3 4:15,0.33408,0,0.23472,0.0216,0,0.14544,0.20736,0,-0.01152
2005/2/3 4:30,0.48384,0,0.26784,0.0216,0,0.14544,0.11088,0,-0.00144
2005/2/3 4:45,0.3672,0,0.3024,0.03312,0.39024,0.14112,0.07776,0,-0.0432
2005/2/3 5:00,0.40464,0,0.2448,0.0216,0.00144,0.144,0.15696,0,-0.0216
2005/2/3 5:15,0.46512,0,0.27504,0.0216,0,0.14544,0.0792,0,-0.01584
2005/2/3 5:30,0.3096,0,0.27936,0.03168,0.27072,0.14112,0.1152,0,-0.01152
2005/2/3 5:45,0.4752,0,0.27936,0.0216,0.16992,0.14112,0.1872,0,-0.0432
2005/2/3 6:00,0.36,0,0.26496,0.0216,0,0.14112,0.1368,0,-0.00864
2005/2/3 6:15,0.44208,0,0.25056,0.0216,0.07056,0.18144,0.11376,0,-0.03888
2005/2/3 6:30,2.53584,0,1.21392,1.4544,0.34848,0.24624,0.34848,0,-0.84816
2005/2/3 6:45,6.43824,0,2.58624,3.35088,0.0216,0.24912,0.72144,0,0.14832
2005/2/3 7:00,4.30704,0,2.14128,1.85472,0.03024,0.25344,0.59616,0,0.36288
2005/2/3 7:15,3.91104,0,2.31696,0.11664,0.42048,0.24912,0.5472,0,0.2664
2005/2/3 7:30,4.2552,0,2.74032,0.35136,0.54576,0.23472,0.47664,0,-1.13184
2005/2/3 7:45,4.99968,0,1.6416,0.08928,0.54288,0.15264,0.07056,0,-0.5688
2005/2/3 8:00,7.59888,0,1.37232,0.08352,0.44784,0.13392,0.92304,0,-0.33696
2005/2/3 8:15,3.2904,0,0.8496,0.11376,0.49824,0.14688,0.144,0,0.37152
2005/2/3 8:30,0,0,0.45504,0.13536,0.4752,0.1512,0.06768,0,-0.0936
2005/2/3 8:45,0,0,0.39888,0.14544,0.07632,0.1512,0.10368,0,-0.01008
2005/2/3 9:00,0,0,0.40608,0.14544,0.06192,0.16848,0.10656,0,0.03024
2005/2/3 9:15,0,0,0.41472,0.14544,0.4464,0.1656,0.10224,0,-0.02448
2005/2/3 9:30,0,0,0.38736,0.14976,0.0288,0.1512,0.17712,0,0.01152
2005/2/3 9:45,0,0,0.42624,0.14832,0,0.14832,0.14544,0,0.01728
2005/2/3 10:00,0,0,0.43344,0.15408,0.4464,0.13968,0.06912,0,-0.08496
2005/2/3 10:15,0,0,0.39888,0.13392,0.02016,0.144,0.10224,0,0.0288
2005/2/3 10:30,0,0,0.40752,0.1368,0,0.14112,0.108,0,0.02016
2005/2/3 10:45,0,0,0.42048,0.13968,0.3456,0.1368,0.10512,0,-0.0648
2005/2/3 11:00,0,0,0.40896,0.14112,0.108,0.14256,0.07344,0,0.00576
2005/2/3 11:15,0,0,0.38592,0.1296,0,0.14544,0.15984,0,0.00576
2005/2/3 11:30,0,0,0.39312,0.14544,0.23328,0.14544,0.20736,0,-0.0576
2005/2/3 11:45,0,0,0.4032,0.1368,0.19872,0.14112,0.10224,0,-0.00576
2005/2/3 12:00,0,0,0.43344,0.13248,0,0.144,0.10944,0,-0.01872
2005/2/3 12:15,0,0,0.39312,0.1368,0.1152,0.13824,0.10368,0,0.02736
2005/2/3 12:30,0,0,0.41616,0.14544,0.31968,0.144,0.07344,0,0.01008
2005/2/3 12:45,0,0,0.42624,0.14976,0,0.14544,0.10512,0,-0.04032
2005/2/3 13:00,0,0,0.4176,0.14544,0,0.14112,0.108,0,0.01872
2005/2/3 13:15,0,0,0.40464,0.12528,0.44208,0.144,0.10368,0,-0.03312
2005/2/3 13:30,0,0,0.40032,0.13968,0,0.13968,0.10368,0,0.04752
2005/2/3 13:45,0,0,0.41904,0.144,0,0.14544,0.19728,0,0.00288
2005/2/3 14:00,0,0,0.37872,0.13248,0.30384,0.144,0.17136,0,0.00144
2005/2/3 14:15,0,0,0.40752,0.13392,0.12528,0.14256,0.10368,0,0.01296
2005/2/3 14:30,0,0,0.41904,0.14832,0,0.144,0.16128,0,0.06336
2005/2/3 14:45,0,0,0.46512,0.1512,0.15984,0.13824,0.1368,0,-0.07488
2005/2/3 15:00,0,0,0.43776,0.1368,0.27792,0.13968,0.07344,0,-0.0504
2005/2/3 15:15,0,0,0.3888,0.12816,0,0.144,0.19008,0,-0.0288
2005/2/3 15:30,0,0,0.40752,0.13536,0,0.13968,0.12384,0,0.02304
2005/2/3 15:45,0,0,0.40608,0.14544,0.432,0.13824,0.07344,0,-0.02592
2005/2/3 16:00,0,0,0.52272,0.13248,0,0.1368,0.10512,0,0.0792
2005/2/3 16:15,0,0,0.39888,0.1296,0,0.144,0.11088,0,0.01152
2005/2/3 16:30,0,0,0.4104,0.13536,0.22032,0.144,0.10656,0,-0.03024
2005/2/3 16:45,0,0,0.3888,0.14832,0.19584,0.14256,0.19296,0,0.0288
2005/2/3 17:00,0,0,0.46368,0.13536,0,0.14112,0.07488,0,-0.0576
2005/2/3 17:15,0,0,0.4176,0.1368,0.0864,0.13392,0.108,0,-0.00576
2005/2/3 17:30,2.87136,0,1.01808,0.15264,0.34128,0.14112,0.10656,0,-0.36288
2005/2/3 17:45,9.62208,0,2.07936,0.6984,0.04608,0.26352,0.10944,0,-0.68832
2005/2/3 18:00,6.68016,0,2.124,0.66672,0.072,0.47232,0.0936,0,-0.69984
2005/2/3 18:15,6.3504,0,2.02752,0.14976,0.40464,0.47232,0.10224,0,-0.47232
2005/2/3 18:30,6.24672,0,2.24064,0.11232,0,0.27792,0.10512,0,-0.32256
2005/2/3 18:45,5.77152,0,2.7072,0.23904,0.08496,0.2376,0.20304,0,-0.4536
2005/2/3 19:00,5.89824,0,2.62224,1.31904,0.45216,0.2376,0.07056,0,-0.468
2005/2/3 19:15,5.67216,0,2.26512,0.0216,0,0.2376,0.10512,0,-0.3168
2005/2/3 19:30,5.54688,0,2.10384,0.02304,0.10656,0.2376,0.108,0,-0.37296
2005/2/3 19:45,5.21424,0,2.57472,0.02592,0.44496,0.2376,0.1296,0,0.18288
2005/2/3 20:00,5.0832,0,2.68128,0.0216,0.0288,0.2376,0.15696,0,1.61424
2005/2/3 20:15,4.6944,0,2.736,0.0216,0.0288,0.2376,0.13536,0,1.73376
2005/2/3 20:30,4.93344,0,1.98144,0.0288,0.4392,0.2376,0.10224,0,1.88064
2005/2/3 20:45,4.93488,0,1.69056,0.0216,0.00432,0.2376,0.11952,0,1.77408
2005/2/3 21:00,5.17392,0,1.77264,0.0216,0.0432,0.21024,0.06768,0,1.72224
2005/2/3 21:15,4.4208,0,1.83312,0.0288,0.42768,0.13392,0.83376,0,1.11312
2005/2/3 21:30,4.76496,0,2.02896,0.0216,0.05184,0.17424,0.16416,0,-0.37152
2005/2/3 21:45,4.69008,0,2.04768,0.0216,0,0.60912,0.13248,0,-0.32544
2005/2/3 22:00,4.6656,0,2.10528,0.02736,0.44784,0.4896,0.09504,0,-0.2736
2005/2/3 22:15,4.72896,0,1.45584,0.02448,0.04464,0.1368,0.27216,0,-0.22896
2005/2/3 22:30,4.2696,0,1.8216,0.0216,0,0.1368,0.54288,0,0.12528
2005/2/3 22:45,2.92608,0,1.82736,0.03024,0.43344,0.14256,1.74672,0,1.49904
2005/2/3 23:00,2.71296,0,2.09232,0.0216,0.07776,0.1512,0.82656,0,1.48464
2005/2/3 23:15,2.47968,0,1.97568,0.0216,0,0.29808,0.144,0,1.9656
2005/2/3 23:30,2.38032,0,1.33632,0.0216,0.4176,0.28656,0.10224,0,1.40832
2005/2/3 23:45,2.29104,0,0.65088,0.0216,0.01872,0.18144,0.09504,0,0.25056
2005/2/4 0:00,0.03456,0,0.4032,0.0216,0.02016,0.16272,0.07056,0,0.02736
2005/2/4 0:15,0,0,0.42192,0.02448,0.44352,0.24192,0.1296,0,-0.03456
2005/2/4 0:30,0,0,0.61488,0.02304,0.072,0.1512,0.16128,0,-0.0072
2005/2/4 0:45,0,0,0.61056,0.0216,0,0.15264,0.108,0,-0.02016
2005/2/4 1:00,0,0,0.59616,0.02592,0.38592,0.2088,0.12384,0,-0.06048
2005/2/4 1:15,0,0,0.59904,0.02304,0.06048,0.18432,0.06624,0,-0.00576
2005/2/4 1:30,0,0,0.31392,0.0216,0,0.1728,0.072,0,0.04176
2005/2/4 1:45,0,0,0.27072,0.02736,0.3528,0.15264,0.14112,0,0.00144
2005/2/4 2:00,0,0,0.24912,0.02592,0.14688,0.14976,0.1656,0,0.036
2005/2/4 2:15,0,0,0.2664,0.0216,0,0.13968,0.10656,0,0.03888
2005/2/4 2:30,0,0,0.27072,0.0288,0.29376,0.14112,0.09648,0,0.0072
2005/2/4 2:45,0,0,0.26208,0.02304,0.15408,0.144,0.09792,0,0.03168
2005/2/4 3:00,0,0,0.27216,0.0216,0,0.144,0.10224,0,0.0504
2005/2/4 3:15,0,0,0.27072,0.02448,0.20304,0.13824,0.0648,0,0.03888
2005/2/4 3:30,0,0,0.288,0.02448,0.22896,0.144,0.1584,0,0.01296
2005/2/4 3:45,0,0,0.26496,0.0216,0,0.13968,0.1008,0,0.04608
2005/2/4 4:00,0,0,0.26496,0.02304,0.11808,0.144,0.13824,0,0.036
2005/2/4 4:15,0,0,0.27216,0.0216,0.31248,0.14112,0.09792,0,0.00864
2005/2/4 4:30,0,0,0.26064,0.0216,0,0.144,0.10368,0,0.05904
2005/2/4 4:45,0,0,0.26064,0.0216,0,0.13968,0.10224,0,0.0504
2005/2/4 5:00,0,0,0.26784,0.02448,0.42048,0.14544,0.108,0,0
2005/2/4 5:15,0,0,0.26784,0.0216,0,0.14112,0.10656,0,0.04608
2005/2/4 5:30,0,0,0.2304,0.0216,0,0.144,0.17424,0,0.04464
2005/2/4 5:45,0,0,0.26496,0.02592,0.31104,0.14688,0.07344,0,0.02016
2005/2/4 6:00,0,0,0.2592,0.0216,0.09504,0.21888,0.10224,0,0.04752
2005/2/4 6:15,0.81216,0,0.4752,0.0216,0,0.2304,0.16848,0,-0.216
2005/2/4 6:30,6.07104,0,1.0872,1.11744,0.21744,0.23184,0.13824,0,0.01008
2005/2/4 6:45,5.15376,0,2.0016,0.70272,0.2664,0.20016,0.08064,0,-0.46368
2005/2/4 7:00,4.08528,0,2.83968,1.2384,0.036,0.15696,0.13824,0,-0.6984
2005/2/4 7:15,3.27024,0,2.04768,2.02032,0.12096,0.1512,0.10512,0,-0.21168
2005/2/4 7:30,3.63024,0,1.86912,0.02304,0.32112,0.1512,0.65088,0,0.69696
2005/2/4 7:45,2.6856,0,1.10736,0.0216,0,0.1512,1.29888,0,-0.23616
2005/2/4 8:00,4.20768,0,1.16496,0.0216,0.08496,0.66528,0.35568,0,-0.64656
2005/2/4 8:15,0.24336,0,0.27072,0.02448,0.34704,0.57168,0.108,0,-0.06912
2005/2/4 8:30,0,0,0.17568,0.0216,0,0.25488,0.11376,0,0.05184
2005/2/4 8:45,0,0,0.17568,0.02304,0.0144,0.13824,0.07344,0,0.05616
2005/2/4 9:00,0,0,0.17424,0.03024,0.40608,0.14112,0.11952,0,0.01296
2005/2/4 9:15,0,0,0.1872,0.0216,0,0.14256,0.17568,0,0.0504
2005/2/4 9:30,0,0,0.18288,0.0216,0,0.14256,0.11088,0,0.05616
2005/2/4 9:45,0,0,0.17568,0.02304,0.37728,0.14544,0.1872,0,-0.01584
2005/2/4 10:00,0,0,0.18288,0.0216,0.05184,0.14256,0.13968,0,0.04464
2005/2/4 10:15,0,0,0.18432,0.0216,0,0.14544,0.08352,0,0.05616
2005/2/4 10:30,0,0,0.18432,0.0216,0.2664,0.144,0.10512,0,0.0216
2005/2/4 10:45,0,0,0.1872,0.02448,0.15552,0.13968,0.11376,0,0.03168
2005/2/4 11:00,0,0,0.18144,0.0216,0,0.144,0.11088,0,0.05616
2005/2/4 11:15,0,0,0.1944,0.02448,0.1368,0.14112,0.20448,0,0.036
2005/2/4 11:30,0,0,0.17712,0.02448,0.2664,0.14256,0.08064,0,0.03312
2005/2/4 11:45,0,0,0.18864,0.0216,0,0.13824,0.108,0,0.05184
2005/2/4 12:00,0,0,0.18,0.02304,0.02736,0.14688,0.11664,0,0.06192
2005/2/4 12:15,0,0,0.18432,0.02448,0.38304,0.13824,0.11088,0,0.01584
2005/2/4 12:30,0,0,0.1872,0.0216,0,0.14112,0.1152,0,0.0576
2005/2/4 12:45,0,0,0.15984,0.0216,0,0.14112,0.20304,0,0.06768
2005/2/4 13:00,0,0,0.18288,0.02448,0.432,0.14112,0.10944,0,0.0288
2005/2/4 13:15,0,0,0.18288,0.0216,0.05472,0.13968,0.10656,0,0.04464
2005/2/4 13:30,0,0,0.18864,0.0216,0,0.1368,0.1152,0,0.05184
2005/2/4 13:45,0,0,0.18,0.02304,0.3672,0.14112,0.07488,0,0.02016
2005/2/4 14:00,0,0,0.16992,0.02304,0.06624,0.14256,0.14544,0,0.04896
2005/2/4 14:15,0,0,0.17568,0.0216,0,0.13968,0.08784,0,0.05616